Change the Weather History Date:

Thursday, January 2, 2014

  Actual Average Record
Temperature  
Mean Temperature 38 °F -  
Max Temperature 41 °F 38 °F 52 °F (2001)
Min Temperature 35 °F 30 °F 7 °F (1965)
Degree Days  
Heating Degree Days 27    
Moisture  
Dew Point 35 °F    
Average Humidity 89    
Maximum Humidity 97    
Minimum Humidity 76    
Precipitation  
Precipitation 0.34 in - - ()
Sea Level Pressure  
Sea Level Pressure 29.90 in    
Wind  
Wind Speed 7 mph (East)    
Max Wind Speed 14 mph    
Max Gust Speed 22 mph    
Visibility 9 miles    
Events Rain    
Averages and records for this station are not official NWS values.
T = Trace of Precipitation, MM = Missing Value Source: NWS Daily Summary

Daily Weather History Graph

Daily Weather History Graph

Search for Another Location

Airport or City:

Trip Planner

Search our weather history database for the weather conditions in past years. The results will help you decide how hot, cold, wet, or windy it might be!

Date:

Astronomy

Jan. 02, 2014 Rise Set
Actual Time 8:39 AM AKST 3:32 PM AKST
Civil Twilight 7:50 AM AKST 4:20 PM AKST
Nautical Twilight 7:00 AM AKST 5:11 PM AKST
Astronomical Twilight 6:13 AM AKST 5:58 PM AKST
Moon 8:59 AM AKST (1/2) 6:09 PM AKST (1/2)
Length of Visible Light 8h 30m
Length of Day
6h 52m
Waxing Crescent, 3% of the Moon is Illuminated
Jan 2
Waxing Crescent
Jan 7
First Quarter
Jan 15
Full
Jan 23
Last Quarter
Jan 30
New

Hourly Weather History & Observations

Time (AKST) Temp. Windchill Dew Point Humidity Pressure Visibility Wind Dir Wind Speed Gust Speed Precip Events Conditions
12:10 AM 39.9 °F 35.1 °F 36.0 °F 86% 29.94 in 10.0 mi East 6.9 mph - N/A   Mostly Cloudy
12:53 AM 39.0 °F 34.0 °F 36.0 °F 89% 29.93 in 10.0 mi East 6.9 mph - N/A   Mostly Cloudy
1:29 AM 37.9 °F 33.5 °F 35.1 °F 89% 29.92 in 10.0 mi East 5.8 mph - N/A   Overcast
1:37 AM 37.9 °F 31.5 °F 36.0 °F 93% 29.91 in 10.0 mi East 9.2 mph - N/A   Overcast
1:53 AM 39.0 °F 34.0 °F 35.1 °F 86% 29.91 in 10.0 mi ESE 6.9 mph - N/A   Overcast
2:53 AM 39.0 °F 33.4 °F 34.0 °F 82% 29.89 in 10.0 mi ESE 8.1 mph - N/A   Overcast
3:53 AM 41.0 °F 34.7 °F 34.0 °F 76% 29.85 in 10.0 mi SE 10.4 mph - N/A   Overcast
4:31 AM 41.0 °F 35.2 °F 34.0 °F 76% 29.84 in 8.0 mi ESE 9.2 mph - 0.01 in Rain Light Rain
4:53 AM 39.9 °F 32.9 °F 35.1 °F 83% 29.84 in 5.0 mi SSE 11.5 mph - 0.05 in Rain Rain
5:53 AM 37.0 °F 28.9 °F 35.1 °F 93% 29.83 in 7.0 mi ESE 12.7 mph - 0.12 in Rain Rain
6:34 AM 37.9 °F 32.1 °F 35.1 °F 89% 29.82 in 10.0 mi East 8.1 mph - 0.01 in   Overcast
6:53 AM 39.0 °F 34.8 °F 36.0 °F 89% 29.82 in 10.0 mi ENE 5.8 mph - 0.01 in   Overcast
7:17 AM 39.0 °F 31.0 °F 37.0 °F 93% 29.81 in 4.0 mi West 13.8 mph 21.9 mph 0.01 in Rain Light Rain
7:36 AM 41.0 °F 33.5 °F 37.0 °F 86% 29.82 in 10.0 mi West 13.8 mph 21.9 mph 0.01 in Rain Light Rain
7:50 AM 41.0 °F 38.0 °F 37.4 °F 87% 29.81 in 10.0 mi NNW 4.6 mph - 0.01 in   Overcast
7:53 AM 39.9 °F 36.7 °F 37.9 °F 93% 29.82 in 10.0 mi NNW 4.6 mph - 0.01 in   Overcast
8:14 AM 39.0 °F 36.8 °F 37.0 °F 93% 29.82 in 10.0 mi ESE 3.5 mph - N/A   Overcast
8:38 AM 39.9 °F 34.5 °F 37.0 °F 89% 29.82 in 7.0 mi West 8.1 mph - 0.01 in Rain Light Rain
8:53 AM 41.0 °F 35.2 °F 36.0 °F 82% 29.83 in 10.0 mi WNW 9.2 mph - 0.01 in   Overcast
9:10 AM 41.0 °F 39.0 °F 36.0 °F 82% 29.83 in 10.0 mi NNW 3.5 mph - N/A   Overcast
9:53 AM 41.0 °F 39.0 °F 35.1 °F 79% 29.84 in 10.0 mi NNE 3.5 mph - N/A   Overcast
10:53 AM 39.9 °F 35.1 °F 36.0 °F 86% 29.85 in 4.0 mi West 6.9 mph - 0.01 in Rain Light Rain
11:07 AM 39.9 °F 34.5 °F 36.0 °F 86% 29.85 in 10.0 mi WNW 8.1 mph - 0.00 in   Overcast
11:51 AM 39.2 °F 35.0 °F 35.6 °F 87% 29.84 in 10.0 mi ESE 5.8 mph - 0.00 in Rain Light Rain
11:53 AM 39.0 °F 34.8 °F 35.1 °F 86% 29.84 in 10.0 mi ESE 5.8 mph - 0.00 in Rain Light Rain
12:53 PM 37.9 °F 34.4 °F 34.0 °F 86% 29.84 in 10.0 mi ESE 4.6 mph - 0.04 in Rain Light Rain
1:37 PM 37.0 °F 32.4 °F 35.1 °F 93% 29.85 in 7.0 mi North 5.8 mph - 0.02 in   Mostly Cloudy
1:53 PM 37.9 °F 32.7 °F 34.0 °F 86% 29.85 in 10.0 mi WNW 6.9 mph - 0.02 in   Mostly Cloudy
2:53 PM 39.0 °F 35.7 °F 32.0 °F 76% 29.86 in 9.0 mi Variable 4.6 mph - 0.00 in Rain Light Rain
3:49 PM 35.6 °F 29.9 °F 33.8 °F 93% 29.86 in 10.0 mi ENE 6.9 mph - 0.00 in Rain Light Rain
3:53 PM 36.0 °F 29.0 °F 33.1 °F 89% 29.86 in 10.0 mi East 9.2 mph - 0.00 in Rain Light Rain
4:30 PM 36.0 °F - 33.1 °F 89% 29.89 in 6.0 mi Calm Calm - 0.05 in Rain Light Rain
4:50 PM 35.6 °F 30.7 °F 32.0 °F 87% 29.89 in 10.0 mi East 5.8 mph - 0.05 in   Scattered Clouds
4:53 PM 35.1 °F 30.1 °F 33.1 °F 92% 29.89 in 10.0 mi East 5.8 mph - 0.05 in   Scattered Clouds
5:53 PM 36.0 °F 31.1 °F 34.0 °F 93% 29.91 in 9.0 mi ESE 5.8 mph - 0.00 in Rain Light Rain
6:02 PM 36.0 °F 30.3 °F 34.0 °F 93% 29.91 in 9.0 mi SE 6.9 mph - 0.00 in Rain Light Rain
6:53 PM 35.1 °F 28.6 °F 34.0 °F 96% 29.92 in 10.0 mi ESE 8.1 mph - 0.01 in   Mostly Cloudy
7:53 PM 35.1 °F 31.0 °F 34.0 °F 96% 29.95 in 10.0 mi East 4.6 mph - 0.00 in Rain Light Rain
8:04 PM 35.1 °F 30.1 °F 34.0 °F 96% 29.96 in 10.0 mi ESE 5.8 mph - 0.00 in   Overcast
8:15 PM 35.1 °F 31.0 °F 34.0 °F 96% 29.96 in 10.0 mi East 4.6 mph - 0.00 in   Overcast
8:53 PM 35.1 °F - 34.0 °F 96% 29.99 in 10.0 mi Calm Calm - 0.00 in   Overcast
9:53 PM 35.1 °F - 34.0 °F 96% 30.02 in 10.0 mi Calm Calm - 0.00 in Rain Light Rain
10:19 PM 36.0 °F - 35.1 °F 97% 30.04 in 10.0 mi Calm Calm - 0.00 in   Overcast
10:26 PM 36.0 °F - 35.1 °F 97% 30.05 in 10.0 mi Calm Calm - 0.00 in   Overcast
10:36 PM 36.0 °F - 34.0 °F 93% 30.05 in 10.0 mi Calm Calm - 0.00 in Rain Light Rain
10:53 PM 35.1 °F 32.2 °F 34.0 °F 96% 30.06 in 10.0 mi East 3.5 mph - 0.00 in Rain Light Rain
11:33 PM 35.1 °F 30.1 °F 34.0 °F 96% 30.08 in 10.0 mi East 5.8 mph - 0.01 in Rain Light Rain
11:51 PM 35.6 °F 31.7 °F 33.8 °F 93% 30.09 in 7.0 mi East 4.6 mph - 0.01 in Rain Light Rain
11:53 PM 35.1 °F 31.0 °F 34.0 °F 96% 30.09 in 7.0 mi East 4.6 mph - 0.01 in Rain Light Rain